TimeEST,TemperatureF,Dew PointF,Humidity,Sea Level PressureIn,VisibilityMPH,Wind Direction,Wind SpeedMPH,Gust SpeedMPH,PrecipitationIn,Events,Conditions,WindDirDegrees,DateUTC
12:53 AM,18.0,8.1,65,30.05,10.0,SW,8.1,-,N/A,,Overcast,220,2013-02-04 05:53:00
1:53 AM,18.0,10.0,71,30.05,9.0,SW,5.8,-,0.00,Snow,Light Snow,220,2013-02-04 06:53:00
2:53 AM,18.0,10.9,74,30.05,9.0,SW,4.6,-,0.00,Snow,Light Snow,220,2013-02-04 07:53:00
3:51 AM,17.6,10.4,73,30.01,9.0,WSW,3.5,-,0.00,Snow,Light Snow,240,2013-02-04 08:51:00
3:53 AM,18.0,10.9,74,30.05,9.0,WSW,3.5,-,0.00,Snow,Light Snow,250,2013-02-04 08:53:00
5:53 AM,18.0,12.0,78,30.04,7.0,South,3.5,-,0.00,Snow,Light Snow,180,2013-02-04 10:53:00
6:43 AM,17.6,12.2,79,29.99,9.0,Calm,Calm,-,0.00,Snow,Light Snow,0,2013-02-04 11:43:00
6:53 AM,18.0,12.9,81,30.02,9.0,Calm,Calm,-,0.00,Snow,Light Snow,0,2013-02-04 11:53:00
7:53 AM,18.0,12.9,81,30.01,6.0,Calm,Calm,-,0.00,Snow,Light Snow,0,2013-02-04 12:53:00
8:09 AM,19.4,12.2,74,29.98,2.0,Calm,Calm,-,0.00,Snow,Light Snow,0,2013-02-04 13:09:00
8:25 AM,19.4,12.2,74,29.99,1.5,Calm,Calm,-,0.01,Snow,Light Snow,0,2013-02-04 13:25:00
8:53 AM,18.0,14.0,84,30.03,1.0,Calm,Calm,-,0.01,Snow,Light Snow,0,2013-02-04 13:53:00
9:53 AM,19.0,15.1,85,30.02,1.0,Calm,Calm,-,0.01,Snow,Light Snow,0,2013-02-04 14:53:00
10:53 AM,19.0,16.0,88,30.01,1.0,Calm,Calm,-,0.01,Snow,Light Snow,0,2013-02-04 15:53:00
11:41 AM,19.4,15.8,86,29.97,1.0,Calm,Calm,-,0.01,Snow,Light Snow,0,2013-02-04 16:41:00
11:53 AM,19.9,16.0,85,30.00,1.0,Calm,Calm,-,0.01,Snow,Light Snow,0,2013-02-04 16:53:00
12:01 PM,19.4,15.8,86,29.96,1.0,Calm,Calm,-,0.01,Snow,Light Snow,0,2013-02-04 17:01:00
12:53 PM,21.0,17.1,85,29.96,1.0,Calm,Calm,-,0.01,Snow,Light Snow,0,2013-02-04 17:53:00
1:18 PM,21.2,17.6,86,29.92,0.8,Calm,Calm,-,0.00,Snow,Light Snow,0,2013-02-04 18:18:00
1:44 PM,21.2,17.6,86,29.92,1.0,Calm,Calm,-,0.01,Snow,Light Snow,0,2013-02-04 18:44:00
1:53 PM,21.0,18.0,88,29.94,1.0,Calm,Calm,-,0.02,Snow,Light Snow,0,2013-02-04 18:53:00
2:51 PM,23.0,17.6,80,29.89,1.0,Calm,Calm,-,0.00,Snow,Light Snow,0,2013-02-04 19:51:00
2:53 PM,23.0,18.0,81,29.92,1.0,Calm,Calm,-,0.00,Snow,Light Snow,0,2013-02-04 19:53:00
3:29 PM,24.8,17.6,74,29.89,2.0,Calm,Calm,-,0.01,Snow,Light Snow,0,2013-02-04 20:29:00
3:53 PM,23.0,17.1,78,29.92,2.0,NE,4.6,-,0.01,Snow,Light Snow,50,2013-02-04 20:53:00
4:53 PM,23.0,17.1,78,29.91,2.5,ENE,3.5,-,0.00,Snow,Light Snow,70,2013-02-04 21:53:00
5:05 PM,21.2,17.6,86,29.88,3.0,East,3.5,-,0.00,Snow,Light Snow,90,2013-02-04 22:05:00
5:53 PM,21.9,17.1,82,29.91,3.0,East,3.5,-,0.00,Snow,Light Snow,90,2013-02-04 22:53:00
6:47 PM,21.2,17.6,86,29.88,4.0,East,4.6,-,0.00,Snow,Light Snow,90,2013-02-04 23:47:00
6:53 PM,21.9,17.1,82,29.91,4.0,East,3.5,-,0.00,Snow,Light Snow,100,2013-02-04 23:53:00
7:53 PM,21.0,17.1,85,29.93,4.0,NE,4.6,-,0.00,Snow,Light Snow,40,2013-02-05 00:53:00
7:55 PM,21.2,15.8,80,29.90,4.0,NNE,5.8,-,0.00,Snow,Light Snow,30,2013-02-05 00:55:00
8:39 PM,21.2,15.8,80,29.91,4.0,NE,4.6,-,0.00,Snow,Light Snow,40,2013-02-05 01:39:00
8:53 PM,21.0,16.0,81,29.94,5.0,NNE,3.5,-,0.00,Snow,Light Snow,20,2013-02-05 01:53:00
9:53 PM,19.9,16.0,85,29.96,6.0,NNE,4.6,-,0.00,Snow,Light Snow,30,2013-02-05 02:53:00
10:53 PM,19.0,15.1,85,29.94,6.0,NNE,3.5,-,0.00,Snow,Light Snow,30,2013-02-05 03:53:00
11:22 PM,17.6,14.0,86,29.91,6.0,NNE,3.5,-,0.00,Snow,Light Snow,20,2013-02-05 04:22:00
11:53 PM,19.0,14.0,81,29.96,6.0,North,3.5,-,0.00,Snow,Light Snow,350,2013-02-05 04:53:00